| time (UTC) | temp C | wind direction | speed KPH | gust KPH | rain 1hr cm | rain 24hr cm | rain mn cm | humidity % | barometer mb |
| 20260903233008 | 25 | 359 | 0.0 | 0.0 | 0.00 | 0.46 | 0.46 | 86 | 1009.3 |
| 20260903231505 | 25 | 359 | 0.0 | 0.0 | 0.00 | 0.46 | 0.46 | 85 | 1009.2 |
| 20260903230003 | 26 | 359 | 0.0 | 0.0 | 0.00 | 0.46 | 0.46 | 83 | 1009.0 |
| 20260903224502 | 26 | 359 | 0.0 | 0.0 | 0.00 | 0.46 | 0.46 | 81 | 1009.2 |
| 20260903223114 | 26 | 359 | 0.0 | 0.0 | 0.00 | 0.46 | 0.46 | 80 | 1009.3 |
| 20260903221559 | 26 | 359 | 0.0 | 0.0 | 0.00 | 0.46 | 0.46 | 79 | 1009.5 |
| 20260903220107 | 27 | 2 | 0.0 | 3.2 | 0.00 | 0.46 | 0.46 | 78 | 1009.4 |
| 20260903214559 | 27 | 342 | 0.0 | 1.6 | 0.00 | 0.46 | 0.46 | 76 | 1009.3 |
| 20260903213058 | 27 | 10 | 0.0 | 3.2 | 0.00 | 0.46 | 0.46 | 78 | 1009.2 |
| 20260903211610 | 27 | 344 | 0.0 | 3.2 | 0.00 | 0.46 | 0.46 | 76 | 1009.4 |
| 20260903210057 | 27 | 200 | 0.0 | 3.2 | 0.00 | 0.46 | 0.46 | 76 | 1009.3 |
| 20260903204602 | 27 | 189 | 0.0 | 1.6 | 0.00 | 0.46 | 0.46 | 75 | 1009.3 |
| 20260903203055 | 27 | 202 | 0.0 | 0.0 | 0.00 | 0.46 | 0.46 | 78 | 1009.3 |
| 20260903201553 | 28 | 191 | 0.0 | 1.6 | 0.00 | 0.46 | 0.46 | 75 | 1009.6 |
| 20260903200054 | 28 | 169 | 0.0 | 0.0 | 0.00 | 0.46 | 0.46 | 75 | 1009.7 |
| 20260903194553 | 28 | 172 | 0.0 | 1.6 | 0.00 | 0.46 | 0.46 | 73 | 1009.8 |
| 20260903193050 | 28 | 188 | 0.0 | 1.6 | 0.00 | 0.46 | 0.46 | 74 | 1009.9 |
| 20260903191556 | 27 | 15 | 0.0 | 8.0 | 0.00 | 0.46 | 0.46 | 76 | 1010.1 |
| 20260903190045 | 27 | 176 | 0.0 | 3.2 | 0.00 | 0.46 | 0.46 | 76 | 1010.1 |
| 20260903184542 | 27 | 200 | 0.0 | 3.2 | 0.00 | 0.46 | 0.46 | 77 | 1010.4 |
| 20260903183101 | 26 | 173 | 0.0 | 3.2 | 0.00 | 0.46 | 0.46 | 77 | 1010.5 |
| 20260903181538 | 27 | 12 | 0.0 | 4.8 | 0.00 | 0.46 | 0.46 | 77 | 1010.5 |
| 20260903180039 | 27 | 355 | 0.0 | 6.4 | 0.00 | 0.46 | 0.46 | 79 | 1010.6 |
| 20260903174537 | 26 | 22 | 0.0 | 3.2 | 0.00 | 0.46 | 0.46 | 79 | 1010.6 |
| 20260903173037 | 26 | 355 | 0.0 | 4.8 | 0.00 | 0.46 | 0.46 | 80 | 1010.6 |
| 20260903171534 | 27 | 79 | 0.0 | 4.8 | 0.00 | 0.46 | 0.46 | 78 | 1010.7 |
| 20260903170033 | 26 | 335 | 0.0 | 6.4 | 0.00 | 0.46 | 0.46 | 80 | 1011.0 |
| 20260903164529 | 27 | 207 | 0.0 | 3.2 | 0.00 | 0.46 | 0.46 | 82 | 1010.8 |
| 20260903163026 | 26 | 204 | 0.0 | 4.8 | 0.00 | 0.46 | 0.46 | 86 | 1010.8 |
| 20260903161532 | 25 | 196 | 0.0 | 0.0 | 0.00 | 0.46 | 0.46 | 88 | 1010.8 |
| 20260903160119 | 25 | 202 | 0.0 | 0.0 | 0.00 | 0.46 | 0.46 | 89 | 1011.0 |
| 20260903154514 | 24 | 194 | 0.0 | 0.0 | 0.00 | 0.46 | 0.46 | 90 | 1011.1 |
| 20260903153011 | 23 | 192 | 0.0 | 0.0 | 0.00 | 0.46 | 0.46 | 92 | 1011.4 |
| 20260903151508 | 23 | 192 | 0.0 | 0.0 | 0.00 | 0.46 | 0.46 | 92 | 1011.6 |
| 20260903150003 | 22 | 194 | 0.0 | 3.2 | 0.00 | 0.46 | 0.46 | 94 | 1011.7 |
| 20260903144601 | 22 | 188 | 0.0 | 0.0 | 0.00 | 0.46 | 0.46 | 95 | 1012.0 |
| 20260903143058 | 22 | 188 | 0.0 | 0.0 | 0.00 | 0.46 | 0.46 | 96 | 1012.3 |
| 20260903141555 | 22 | 207 | 0.0 | 0.0 | 0.03 | 0.46 | 0.46 | 97 | 1012.3 |
| 20260903140054 | 21 | 197 | 0.0 | 1.6 | 0.03 | 0.46 | 0.46 | 97 | 1012.6 |
| 20260903134605 | 21 | 188 | 0.0 | 1.6 | 0.03 | 0.46 | 0.46 | 97 | 1012.6 |
| 20260903133052 | 21 | 177 | 0.0 | 1.6 | 0.03 | 0.46 | 0.46 | 97 | 1012.6 |
| 20260903131549 | 21 | 192 | 0.0 | 0.0 | 0.00 | 0.43 | 0.43 | 97 | 1012.9 |
| 20260903130050 | 21 | 192 | 0.0 | 0.0 | 0.00 | 0.43 | 0.43 | 97 | 1012.7 |
| 20260903124558 | 21 | 192 | 0.0 | 0.0 | 0.00 | 0.43 | 0.43 | 97 | 1012.7 |
| 20260903123047 | 21 | 192 | 0.0 | 0.0 | 0.00 | 0.43 | 0.43 | 97 | 1012.7 |
| 20260903121552 | 21 | 174 | 0.0 | 0.0 | 0.00 | 0.43 | 0.43 | 97 | 1013.0 |
| 20260903120045 | 21 | 171 | 0.0 | 3.2 | 0.00 | 0.43 | 0.43 | 97 | 1013.1 |
| 20260903114544 | 21 | 210 | 0.0 | 3.2 | 0.00 | 0.43 | 0.43 | 97 | 1013.3 |
| 20260903113042 | 21 | 199 | 0.0 | 0.0 | 0.03 | 0.43 | 0.43 | 97 | 1013.2 |
| 20260903111541 | 21 | 202 | 0.0 | 0.0 | 0.03 | 0.43 | 0.43 | 98 | 1013.3 |
| 20260903110040 | 21 | 197 | 0.0 | 0.0 | 0.03 | 0.43 | 0.43 | 98 | 1013.2 |
| 20260903104538 | 20 | 218 | 0.0 | 0.0 | 0.03 | 0.43 | 0.43 | 98 | 1013.2 |
| 20260903103036 | 20 | 161 | 0.0 | 0.0 | 0.00 | 0.41 | 0.41 | 97 | 1012.8 |
| 20260903101536 | 20 | 204 | 0.0 | 0.0 | 0.00 | 0.41 | 0.41 | 97 | 1012.7 |
| 20260903100033 | 19 | 204 | 0.0 | 0.0 | 0.03 | 0.41 | 0.41 | 97 | 1012.8 |
| 20260903094528 | 19 | 206 | 0.0 | 0.0 | 0.33 | 0.41 | 0.41 | 97 | 1013.3 |
| 20260903093026 | 18 | 206 | 0.0 | 0.0 | 0.36 | 0.41 | 0.41 | 96 | 1013.4 |
| 20260903091532 | 18 | 206 | 0.0 | 0.0 | 0.38 | 0.41 | 0.41 | 96 | 1013.5 |
| 20260903090026 | 18 | 206 | 0.0 | 0.0 | 0.38 | 0.38 | 0.38 | 95 | 1013.4 |
| 20260903084522 | 18 | 206 | 0.0 | 0.0 | 0.08 | 0.08 | 0.08 | 94 | 1013.5 |
| 20260903083018 | 18 | 206 | 0.0 | 0.0 | 0.05 | 0.05 | 0.05 | 93 | 1013.9 |
| 20260903081517 | 18 | 206 | 0.0 | 0.0 | 0.03 | 0.03 | 0.03 | 92 | 1014.2 |
| 20260903080015 | 18 | 206 | 0.0 | 0.0 | 0.00 | 0.00 | 0.00 | 92 | 1014.0 |
| 20260903074513 | 18 | 206 | 0.0 | 0.0 | 0.00 | 0.00 | 0.00 | 91 | 1014.4 |
| 20260903073011 | 18 | 206 | 0.0 | 0.0 | 0.00 | 0.00 | 0.00 | 90 | 1014.4 |
| 20260903071507 | 18 | 206 | 0.0 | 0.0 | 0.00 | 0.00 | 0.00 | 89 | 1014.7 |
| 20260903070007 | 18 | 205 | 0.0 | 0.0 | 0.00 | 0.00 | 0.00 | 88 | 1015.0 |
| 20260903064504 | 18 | 205 | 0.0 | 0.0 | 0.00 | 0.00 | 0.00 | 86 | 1015.2 |
| 20260903063125 | 19 | 205 | 0.0 | 0.0 | 0.00 | 0.00 | 0.00 | 83 | 1015.5 |
| 20260903061559 | 19 | 205 | 0.0 | 0.0 | 0.00 | 0.00 | 0.00 | 82 | 1015.7 |
| 20260903060056 | 19 | 205 | 0.0 | 0.0 | 0.00 | 0.00 | 0.00 | 82 | 1016.0 |
| 20260903054555 | 19 | 205 | 0.0 | 0.0 | 0.00 | 0.00 | 0.00 | 82 | 1016.2 |
| 20260903053055 | 19 | 205 | 0.0 | 0.0 | 0.00 | 0.00 | 0.00 | 81 | 1016.5 |
| 20260903051550 | 19 | 205 | 0.0 | 0.0 | 0.00 | 0.00 | 0.00 | 80 | 1016.6 |
| 20260903050048 | 19 | 205 | 0.0 | 0.0 | 0.00 | 0.00 | 0.00 | 80 | 1016.7 |
| 20260903044547 | 19 | 209 | 0.0 | 0.0 | 0.00 | 0.00 | 0.00 | 81 | 1016.8 |
| 20260903043059 | 19 | 209 | 0.0 | 0.0 | 0.00 | 0.00 | 0.00 | 80 | 1017.0 |
| 20260903041541 | 19 | 183 | 0.0 | 0.0 | 0.00 | 0.00 | 0.00 | 81 | 1016.7 |
| 20260903040038 | 18 | 183 | 0.0 | 0.0 | 0.00 | 0.00 | 0.00 | 81 | 1016.8 |
| 20260903034539 | 18 | 183 | 0.0 | 0.0 | 0.00 | 0.00 | 0.00 | 80 | 1016.6 |
| 20260903033036 | 18 | 183 | 0.0 | 0.0 | 0.00 | 0.00 | 0.00 | 80 | 1016.8 |
| 20260903031543 | 18 | 181 | 0.0 | 0.0 | 0.00 | 0.00 | 0.00 | 80 | 1017.0 |
| 20260903030031 | 18 | 181 | 0.0 | 0.0 | 0.00 | 0.00 | 0.00 | 80 | 1017.5 |
| 20260903024530 | 18 | 181 | 0.0 | 1.6 | 0.00 | 0.00 | 0.00 | 80 | 1017.7 |
| 20260903023030 | 19 | 200 | 0.0 | 0.0 | 0.00 | 0.00 | 0.00 | 80 | 1017.7 |
| 20260903021529 | 18 | 169 | 0.0 | 0.0 | 0.00 | 0.00 | 0.00 | 79 | 1017.6 |
| 20260903020038 | 18 | 349 | 0.0 | 1.6 | 0.00 | 0.00 | 0.00 | 79 | 1017.4 |
| 20260903014527 | 19 | 349 | 0.0 | 0.0 | 0.00 | 0.00 | 0.00 | 78 | 1017.5 |
| 20260903013027 | 19 | 349 | 0.0 | 0.0 | 0.00 | 0.00 | 0.00 | 76 | 1018.0 |
| 20260903011526 | 19 | 349 | 0.0 | 0.0 | 0.00 | 0.00 | 0.00 | 76 | 1018.1 |
| 20260903010026 | 20 | 349 | 0.0 | 0.0 | 0.00 | 0.00 | 0.00 | 76 | 1018.1 |
| 20260903004526 | 20 | 349 | 0.0 | 0.0 | 0.00 | 0.00 | 0.00 | 75 | 1017.9 |
| 20260903003026 | 20 | 349 | 0.0 | 0.0 | 0.00 | 0.00 | 0.00 | 76 | 1017.8 |
| 20260903001524 | 20 | 341 | 0.0 | 1.6 | 0.00 | 0.00 | 0.00 | 74 | 1018.1 |
| 20260903000027 | 20 | 360 | 0.0 | 0.0 | 0.00 | 0.00 | 0.00 | 73 | 1018.2 |
| 20260902234528 | 20 | 360 | 0.0 | 1.6 | 0.00 | 0.00 | 0.00 | 73 | 1018.6 |